�N����,����,�~����,�C��,���x,�C��,����,���ϕ���,�ő�u�ԕ���,�ő厞����,���˗�,�I�_���x,�n�����x,�ő啗���N��,DTYPE
"18/03/18","00:10",0.0,2.3,91.3,1020.6,317.7,2.5,3.3,312.9,0.00,1.1,8.7,"00:06:32",1
"18/03/18","00:20",0.0,2.1,91.9,1020.8,293.4,1.6,2.5,317.3,0.00,1.0,8.6,"00:11:12",1
"18/03/18","00:30",0.0,2.1,93.4,1020.6,293.2,1.6,2.0,300.6,0.00,1.2,8.5,"00:22:24",1
"18/03/18","00:40",0.0,2.1,92.7,1020.6,289.3,1.7,2.0,290.1,0.00,1.1,8.5,"00:37:44",1
"18/03/18","00:50",0.0,2.2,93.5,1020.6,286.4,1.6,1.9,289.2,0.00,1.3,8.5,"00:47:52",1
"18/03/18","01:00",0.0,2.2,93.2,1020.1,303.5,2.0,2.7,317.1,0.00,1.3,8.2,"00:54:00",1
"18/03/18","01:10",0.0,2.1,93.4,1020.4,309.3,2.0,2.6,314.0,0.00,1.2,8.3,"01:08:40",1
"18/03/18","01:20",0.0,1.9,93.7,1020.1,294.9,1.6,2.1,305.9,0.00,1.0,8.1,"01:10:48",1
"18/03/18","01:30",0.0,1.8,94.2,1020.1,299.8,1.8,2.4,313.7,0.00,1.0,7.9,"01:28:56",1
"18/03/18","01:40",0.0,1.6,94.1,1020.4,313.1,2.2,2.9,318.4,0.00,0.8,8.2,"01:33:28",1
"18/03/18","01:50",0.0,1.6,95.2,1020.1,295.7,1.7,2.2,305.3,0.00,1.0,7.9,"01:49:52",1
"18/03/18","02:00",0.0,1.6,94.8,1019.7,293.1,1.6,2.1,317.2,0.00,0.9,7.9,"01:59:04",1
"18/03/18","02:10",0.0,1.6,94.9,1019.9,302.2,1.8,2.4,314.2,0.00,0.9,7.9,"02:01:12",1
"18/03/18","02:20",0.0,1.4,94.7,1019.2,299.0,1.2,2.0,310.5,0.00,0.7,7.9,"02:19:52",1
"18/03/18","02:30",0.0,1.4,95.3,1019.4,311.7,1.8,2.6,316.6,0.00,0.8,7.8,"02:22:48",1
"18/03/18","02:40",0.0,1.2,94.9,1019.7,300.3,1.5,1.8,306.4,0.00,0.5,7.7,"02:31:44",1
"18/03/18","02:50",0.0,1.2,95.4,1019.4,305.6,1.3,2.4,312.7,0.00,0.6,7.7,"02:49:20",1
"18/03/18","03:00",0.0,1.3,95.7,1019.2,319.8,2.0,2.4,320.9,0.00,0.7,7.6,"02:50:32",1
"18/03/18","03:10",0.0,1.1,95.5,1019.2,302.1,1.6,2.1,310.4,0.00,0.5,7.8,"03:06:48",1
"18/03/18","03:20",0.0,1.1,96.1,1018.5,317.9,2.0,2.2,315.6,0.00,0.6,7.7,"03:13:04",1
"18/03/18","03:30",0.0,1.0,96.4,1019.0,306.6,1.3,1.8,314.7,0.00,0.5,7.5,"03:20:08",1
"18/03/18","03:40",0.0,0.9,96.6,1019.2,305.9,1.5,2.0,310.9,0.00,0.5,7.3,"03:39:28",1
"18/03/18","03:50",0.0,1.1,97.2,1019.0,323.1,1.8,2.4,326.0,0.00,0.7,7.5,"03:42:16",1
"18/03/18","04:00",0.0,1.0,96.6,1019.0,319.5,2.0,2.2,322.0,0.00,0.6,7.6,"03:54:56",1
"18/03/18","04:10",0.0,0.9,97.1,1019.2,305.9,1.5,1.9,309.0,0.00,0.5,7.3,"04:02:00",1
"18/03/18","04:20",0.0,0.8,97.2,1018.7,307.1,1.3,1.9,315.8,0.00,0.4,7.2,"04:13:20",1
"18/03/18","04:30",0.0,0.6,97.1,1019.2,311.6,1.2,1.6,315.9,0.00,0.2,7.2,"04:20:08",1
"18/03/18","04:40",0.0,0.6,97.5,1019.2,319.3,1.8,2.2,321.0,0.00,0.3,7.4,"04:34:00",1
"18/03/18","04:50",0.0,0.6,97.4,1019.4,306.0,1.5,2.2,321.5,0.00,0.3,7.3,"04:42:56",1
"18/03/18","05:00",0.0,0.8,98.2,1019.0,298.7,1.3,1.6,310.5,0.00,0.6,7.1,"04:54:32",1
"18/03/18","05:10",0.0,1.0,97.2,1019.2,313.5,1.8,2.8,316.3,0.00,0.6,7.2,"05:09:52",1
"18/03/18","05:20",0.0,1.1,97.9,1019.4,313.7,2.1,2.5,324.4,0.00,0.8,7.1,"05:10:08",1
"18/03/18","05:30",0.0,1.0,97.9,1019.7,294.9,1.2,2.0,315.3,0.00,0.7,7.0,"05:20:08",1
"18/03/18","05:40",0.0,1.1,98.4,1019.2,282.1,1.5,1.7,295.7,0.00,0.9,7.0,"05:35:20",1
"18/03/18","05:50",0.0,1.6,97.8,1019.9,293.5,1.7,2.2,305.8,0.00,1.3,7.0,"05:42:48",1
"18/03/18","06:00",0.0,1.5,97.9,1019.7,283.8,1.1,2.4,312.1,0.00,1.2,7.2,"05:50:02",1
"18/03/18","06:10",0.0,1.4,97.8,1019.7,302.3,2.0,2.6,320.7,0.00,1.1,7.1,"06:06:56",1
"18/03/18","06:20",0.0,1.4,98.0,1019.9,309.5,2.3,2.5,317.0,0.00,1.2,7.2,"06:19:20",1
"18/03/18","06:30",0.0,1.6,97.3,1019.9,312.4,2.3,2.7,321.1,0.00,1.3,7.2,"06:25:12",1
"18/03/18","06:40",0.0,1.7,98.1,1019.9,286.8,1.3,1.8,300.8,0.00,1.5,7.2,"06:30:16",1
"18/03/18","06:50",0.0,2.3,97.1,1020.1,285.1,1.2,1.6,300.1,0.01,1.9,7.0,"06:47:52",1
"18/03/18","07:00",0.0,2.4,97.3,1020.4,298.0,1.5,2.5,315.9,0.01,2.1,7.1,"06:57:28",1
"18/03/18","07:10",0.0,2.7,97.3,1020.1,302.1,1.5,2.0,308.5,0.02,2.4,7.2,"07:01:12",1
"18/03/18","07:20",0.0,3.3,97.7,1020.1,275.6,0.8,1.4,255.7,0.03,3.0,7.0,"07:15:04",1
"18/03/18","07:30",0.0,4.3,96.0,1020.1,295.4,1.0,1.3,293.1,0.05,3.8,7.3,"07:21:04",1
"18/03/18","07:40",0.0,5.0,92.3,1020.8,276.5,0.6,1.1,280.0,0.07,3.9,7.3,"07:34:40",1
"18/03/18","07:50",0.0,6.0,84.8,1021.1,293.1,0.5,1.1,287.0,0.11,3.7,7.4,"07:42:24",1
"18/03/18","08:00",0.0,5.7,83.3,1021.3,25.4,0.2,0.9,334.7,0.08,3.1,7.3,"07:59:52",1
"18/03/18","08:10",0.0,6.4,82.4,1021.5,209.3,0.3,1.0,287.0,0.13,3.7,7.6,"08:00:24",1
"18/03/18","08:20",0.0,7.1,79.1,1021.3,211.4,0.5,1.0,289.0,0.18,3.8,7.7,"08:10:08",1
"18/03/18","08:30",0.0,7.7,75.8,1021.8,156.6,0.6,1.1,131.2,0.20,3.7,7.8,"08:24:32",1
"18/03/18","08:40",0.0,7.9,71.8,1022.5,161.1,0.5,1.1,233.1,0.20,3.2,8.0,"08:35:20",1
"18/03/18","08:50",0.0,8.7,68.5,1022.5,277.4,0.6,1.4,303.4,0.19,3.3,8.4,"08:48:40",1
"18/03/18","09:00",0.0,9.1,67.1,1022.7,262.5,0.6,1.2,308.0,0.27,3.4,8.4,"08:50:16",1
"18/03/18","09:10",0.0,10.0,65.2,1023.0,257.3,0.6,1.0,136.0,0.29,3.8,8.6,"09:05:12",1
"18/03/18","09:20",0.0,10.5,64.3,1022.7,205.8,0.5,1.2,147.3,0.32,4.1,8.6,"09:13:52",1
"18/03/18","09:30",0.0,10.9,60.2,1023.0,267.5,0.8,1.6,227.6,0.34,3.5,8.9,"09:20:32",1
"18/03/18","09:40",0.0,11.3,61.0,1022.3,217.2,0.7,1.6,120.4,0.37,4.1,8.8,"09:35:36",1
"18/03/18","09:50",0.0,11.5,58.7,1022.5,136.5,0.7,2.2,105.9,0.41,3.7,9.3,"09:47:28",1
"18/03/18","10:00",0.0,11.8,56.5,1022.3,184.6,1.2,2.4,136.1,0.35,3.5,9.3,"09:51:28",1
"18/03/18","10:10",0.0,12.6,57.5,1022.3,196.2,1.3,3.1,186.8,0.46,4.5,9.6,"10:00:24",1
"18/03/18","10:20",0.0,12.4,56.0,1022.3,234.9,1.2,2.7,223.4,0.46,3.9,10.1,"10:18:08",1
"18/03/18","10:30",0.0,13.3,54.9,1021.8,229.2,1.0,2.5,236.4,0.50,4.5,10.2,"10:23:12",1
"18/03/18","10:40",0.0,13.0,54.1,1021.8,186.7,1.2,2.7,137.4,0.41,4.0,10.4,"10:30:08",1
"18/03/18","10:50",0.0,13.3,55.3,1021.3,188.7,1.5,3.1,126.8,0.44,4.6,10.7,"10:47:04",1
"18/03/18","11:00",0.0,14.1,56.1,1021.3,211.7,1.7,3.6,192.2,0.53,5.5,10.8,"10:58:56",1
"18/03/18","11:10",0.0,13.9,53.6,1020.8,188.3,1.3,2.9,174.3,0.42,4.7,11.1,"11:00:56",1
"18/03/18","11:20",0.0,13.9,52.5,1020.8,174.5,1.6,3.2,177.6,0.31,4.4,11.2,"11:16:40",1
"18/03/18","11:30",0.0,13.7,53.3,1020.8,225.3,1.6,4.2,200.3,0.34,4.4,11.6,"11:26:08",1
"18/03/18","11:40",0.0,14.1,54.9,1020.4,202.4,1.6,4.0,231.6,0.29,5.2,11.7,"11:30:16",1
"18/03/18","11:50",0.0,14.6,53.9,1020.4,218.2,1.2,2.4,185.2,0.33,5.4,11.8,"11:42:48",1
"18/03/18","12:00",0.0,15.2,54.1,1019.9,211.6,1.2,2.7,194.0,0.46,6.0,12.0,"11:55:28",1
"18/03/18","12:10",0.0,15.6,51.6,1019.7,290.5,0.8,1.4,326.3,0.43,5.7,12.1,"12:08:16",1
"18/03/18","12:20",0.0,15.4,51.9,1019.4,333.3,1.7,3.3,347.4,0.36,5.6,12.3,"12:13:20",1
"18/03/18","12:30",0.0,15.8,53.0,1019.2,267.7,0.8,2.1,227.4,0.39,6.3,12.5,"12:27:36",1
"18/03/18","12:40",0.0,15.5,55.4,1019.0,228.0,1.1,3.4,213.2,0.18,6.7,12.3,"12:30:40",1
"18/03/18","12:50",0.0,15.6,54.7,1019.0,228.4,1.2,2.5,232.2,0.21,6.6,12.6,"12:44:48",1
"18/03/18","13:00",0.0,16.0,53.1,1018.7,99.7,1.0,2.5,112.3,0.19,6.5,12.7,"12:53:36",1
"18/03/18","13:10",0.0,16.4,55.8,1018.2,95.8,0.8,1.9,110.5,0.27,7.6,12.8,"13:00:56",1
"18/03/18","13:20",0.0,16.4,54.1,1018.0,14.2,1.1,2.6,319.3,0.17,7.1,12.7,"13:14:48",1
"18/03/18","13:30",0.0,16.6,54.5,1017.5,342.8,1.0,2.4,345.3,0.20,7.4,12.7,"13:24:16",1
"18/03/18","13:40",0.0,17.3,54.8,1017.3,324.1,0.8,2.1,321.1,0.28,8.2,12.8,"13:37:44",1
"18/03/18","13:50",0.0,17.6,55.6,1017.3,234.4,1.8,4.1,182.3,0.34,8.7,12.9,"13:47:28",1
"18/03/18","14:00",0.0,16.9,56.2,1017.1,222.9,2.6,5.4,233.5,0.24,8.2,13.1,"13:55:28",1
"18/03/18","14:10",0.0,16.6,58.2,1017.3,214.4,3.0,6.6,208.2,0.17,8.4,12.9,"14:05:44",1
"18/03/18","14:20",0.0,16.7,58.2,1017.1,257.6,2.0,4.8,249.6,0.20,8.5,13.2,"14:17:36",1
"18/03/18","14:30",0.0,16.5,58.0,1016.8,239.7,2.7,5.1,230.3,0.22,8.3,13.1,"14:28:56",1
"18/03/18","14:40",0.0,16.9,58.5,1016.8,235.5,2.1,3.9,255.6,0.10,8.8,13.1,"14:38:00",1
"18/03/18","14:50",0.0,16.8,56.9,1016.8,289.4,1.0,3.6,324.9,0.06,8.3,13.1,"14:41:12",1
"18/03/18","15:00",0.0,16.6,58.1,1017.3,256.3,1.2,2.8,231.7,0.06,8.4,13.1,"14:56:08",1
"18/03/18","15:10",0.0,16.9,57.9,1017.1,322.8,1.5,3.5,340.6,0.08,8.6,12.9,"15:06:24",1
"18/03/18","15:20",0.0,16.7,57.7,1016.8,327.9,1.8,3.3,343.6,0.06,8.4,12.9,"15:11:20",1
"18/03/18","15:30",0.0,16.5,59.5,1017.1,323.5,2.1,4.0,333.5,0.05,8.6,12.9,"15:25:04",1
"18/03/18","15:40",0.0,16.7,58.5,1016.4,324.4,1.5,2.7,343.9,0.08,8.6,12.9,"15:33:04",1
"18/03/18","15:50",0.0,16.9,57.8,1016.8,306.4,1.3,2.6,334.0,0.08,8.6,13.0,"15:48:40",1
"18/03/18","16:00",0.0,16.9,57.8,1016.8,303.9,1.2,1.9,331.7,0.08,8.6,13.0,"15:50:48",1
"18/03/18","16:10",0.0,16.9,57.7,1016.6,327.2,1.7,2.9,343.3,0.08,8.6,13.0,"16:06:40",1
"18/03/18","16:20",0.0,17.0,58.3,1016.4,317.7,1.6,2.9,337.5,0.08,8.8,13.0,"16:16:32",1
"18/03/18","16:30",0.0,17.0,58.3,1016.8,320.0,1.5,2.7,310.7,0.08,8.8,13.0,"16:28:00",1
"18/03/18","16:40",0.0,17.0,58.1,1016.8,311.4,1.3,2.7,337.9,0.06,8.8,12.9,"16:38:24",1
"18/03/18","16:50",0.0,16.9,59.0,1016.4,323.6,1.6,2.7,344.0,0.05,8.9,12.9,"16:41:28",1
"18/03/18","17:00",0.0,16.8,59.5,1016.4,316.8,1.5,3.1,331.4,0.04,8.9,12.8,"16:54:00",1
"18/03/18","17:10",0.0,16.8,59.6,1016.4,286.6,1.2,2.1,321.0,0.04,8.9,12.7,"17:02:48",1
"18/03/18","17:20",0.0,16.7,59.7,1016.1,260.8,1.2,2.0,240.2,0.04,8.9,12.8,"17:17:28",1
"18/03/18","17:30",0.0,16.6,60.3,1016.1,280.3,1.0,1.9,262.0,0.01,8.9,12.7,"17:28:40",1
"18/03/18","17:40",0.0,16.2,62.1,1016.1,248.0,1.1,1.9,238.1,0.00,9.0,12.7,"17:33:36",1
"18/03/18","17:50",0.0,16.1,62.4,1015.9,284.5,0.8,1.8,317.6,0.00,9.0,12.7,"17:47:04",1
"18/03/18","18:00",0.0,16.0,64.8,1016.1,309.6,1.2,2.0,338.4,0.00,9.4,12.6,"17:57:28",1
"18/03/18","18:10",0.0,15.5,68.7,1016.1,326.5,1.3,1.6,332.7,0.00,9.8,12.5,"18:05:04",1
"18/03/18","18:20",0.0,15.1,70.2,1016.1,307.5,1.5,2.6,325.6,0.00,9.8,12.7,"18:15:28",1
"18/03/18","18:30",0.0,14.8,71.4,1016.8,300.3,1.0,1.7,333.1,0.00,9.7,12.4,"18:23:44",1
"18/03/18","18:40",0.0,14.7,72.1,1016.4,339.8,1.2,2.8,336.9,0.00,9.8,12.4,"18:38:00",1
"18/03/18","18:50",0.0,14.4,72.9,1016.1,315.4,1.0,1.7,311.1,0.00,9.6,12.2,"18:44:00",1
"18/03/18","19:00",0.0,14.2,72.9,1016.1,335.7,1.3,1.9,338.0,0.00,9.5,12.4,"18:58:00",1
"18/03/18","19:10",0.0,13.7,74.3,1016.1,321.0,1.3,2.0,322.8,0.00,9.3,12.2,"19:07:42",1
"18/03/18","19:20",0.0,13.3,76.5,1015.9,305.9,1.6,2.5,320.1,0.00,9.3,11.9,"19:18:08",1
"18/03/18","19:30",0.0,12.8,78.5,1016.4,294.3,1.3,2.1,298.8,0.00,9.2,12.1,"19:28:16",1
"18/03/18","19:40",0.0,12.5,80.6,1015.6,291.3,1.3,2.5,304.6,0.00,9.3,11.7,"19:37:04",1
"18/03/18","19:50",0.0,12.4,81.7,1015.9,297.9,1.5,1.9,311.1,0.00,9.4,12.0,"19:49:52",1
"18/03/18","20:00",0.0,12.5,82.2,1015.9,309.0,1.7,2.6,327.1,0.00,9.6,11.8,"19:53:54",1
"18/03/18","20:10",0.0,12.6,81.6,1015.9,304.2,1.6,2.2,324.6,0.00,9.6,11.8,"20:02:16",1
"18/03/18","20:20",0.0,12.6,81.6,1016.4,293.4,0.7,1.4,296.4,0.00,9.6,11.8,"20:10:24",1
"18/03/18","20:30",0.0,12.4,82.4,1016.4,310.8,0.6,1.1,252.5,0.00,9.5,11.7,"20:29:04",1
"18/03/18","20:40",0.0,12.2,83.3,1016.6,296.5,0.8,1.6,317.2,0.00,9.5,11.7,"20:33:52",1
"18/03/18","20:50",0.0,12.2,83.4,1016.4,331.2,1.7,2.5,330.0,0.00,9.5,11.6,"20:49:48",1
"18/03/18","21:00",0.0,12.0,84.9,1016.1,300.6,1.3,1.9,333.3,0.00,9.6,11.5,"20:50:08",1
"18/03/18","21:10",0.0,12.0,84.5,1016.4,287.0,1.2,1.8,317.9,0.00,9.5,11.6,"21:07:58",1
"18/03/18","21:20",0.0,12.1,85.0,1016.4,309.2,1.3,2.0,316.9,0.00,9.7,11.4,"21:16:42",1
"18/03/18","21:30",0.0,12.1,84.6,1016.4,329.4,1.5,2.4,317.3,0.00,9.6,11.5,"21:21:04",1
"18/03/18","21:40",0.0,11.9,84.9,1016.1,307.2,1.3,1.8,310.7,0.00,9.5,11.5,"21:37:42",1
"18/03/18","21:50",0.0,11.5,85.6,1016.1,300.6,1.2,1.6,284.5,0.00,9.2,11.4,"21:49:34",1
"18/03/18","22:00",0.0,11.4,87.1,1015.6,289.3,1.3,1.9,318.7,0.00,9.4,11.2,"21:57:16",1
"18/03/18","22:10",0.0,11.5,87.1,1015.9,303.0,1.7,2.1,315.3,0.00,9.5,11.2,"22:04:32",1
"18/03/18","22:20",0.0,11.5,86.4,1016.1,324.5,1.7,2.6,336.5,0.00,9.4,11.3,"22:13:30",1
"18/03/18","22:30",0.0,11.3,87.4,1015.9,310.0,1.7,2.5,326.8,0.00,9.3,11.0,"22:28:26",1
"18/03/18","22:40",0.0,11.4,87.9,1016.4,310.5,1.7,3.2,334.5,0.00,9.5,11.1,"22:34:50",1
"18/03/18","22:50",0.0,11.4,87.9,1016.4,308.0,1.5,1.8,318.0,0.00,9.5,11.3,"22:43:58",1
"18/03/18","23:00",0.0,11.4,87.9,1016.4,306.0,1.2,1.8,315.0,0.00,9.5,11.0,"22:51:28",1
"18/03/18","23:10",0.0,11.3,88.2,1016.6,289.4,1.3,1.6,302.8,0.00,9.5,11.3,"23:08:52",1
"18/03/18","23:20",0.0,11.2,88.8,1016.1,312.0,1.3,2.2,317.2,0.00,9.5,11.1,"23:10:02",1
"18/03/18","23:30",0.0,11.1,89.2,1016.4,313.6,2.0,2.6,317.5,0.00,9.4,11.1,"23:22:24",1
"18/03/18","23:40",0.0,11.1,89.9,1015.9,308.3,1.5,1.9,315.2,0.00,9.5,11.0,"23:36:52",1
"18/03/18","23:50",0.0,11.2,89.8,1015.9,306.1,1.6,2.4,313.8,0.00,9.6,11.0,"23:46:22",1
"18/03/18","24:00",0.0,11.4,89.1,1016.1,318.5,1.6,2.1,319.9,0.00,9.7,11.0,"23:56:18",1
